Search for airport 
image banner adimage banner ad
image banner ad

LEFONF - La Font de la Figuera

Located in , Spain

ICAO - , IATA -

Data provided by Airmate  

General information

Coordinates: N38°47'12" W0°52'35"
Elevation is 1969 feet MSL.
 
Rated:
View ratings: [VIEW]


View others Airports in Valencia

Operational data

Open for public use
Current time UTC:
Current local time:
Weather at : LEAL - Alicante-Elche ( 63 km )
METAR: LEAL 091400Z 10011KT 9999 FEW065 30/20 Q1015 NOSIG
TAF: TAF AMD LEAL 091349Z 0913/1012 07015KT 9999 FEW020 TX31/1012Z TN25/1006Z TEMPO 0913/0920 FEW050TCU BECMG 0918/0921 05005KT BECMG 1009/1012 09010KT
View NOTAMs / SUP AIP / TFR affecting this airport [VIEW]
Communications frequencies: [VIEW]

Runways:

RWY identifierQFULength (ft)Width (ft)SurfaceLDA (ft)
04114898DIRT
22114898DIRT

Airport contact information

Address: Spain

Satellite view of LEFONF